Regional Weather Roundup
Issued by NWS

Home | Current Version | Previous Version | Text Only | Print | Product List | Glossary On
Versions: 1 2 3 4 5 6 7 8 9 10 11 12 13 14 15 16 17 18 19 20 21 22 23 24 25 26 27 28 29 30 31 32 33 34 35 36 37 38 39 40 41 42 43 44 45 46 47 48 49 50
000
ASUS43 KLSX 250807
RWRMO

WEATHER SUMMARY FOR MISSOURI
NATIONAL WEATHER SERVICE SPRINGFIELD MO
300 AM CDT MON JUL 25 2016

NOTE: "FAIR" INDICATES FEW OR NO CLOUDS BELOW 12,000 FEET WITH NO
       SIGNIFICANT WEATHER AND/OR OBSTRUCTIONS TO VISIBILITY.
       CURRENT SKY AND/OR WEATHER CONDITIONS ARE NOT AVAILABLE FOR
       CHILLICOTHE AND FARMINGTON.

MOZ001>031-035>038-043-044-053-054-250900-
...NORTHERN AND WESTERN MISSOURI...

CITY           SKY/WX    TMP DP  RH WIND       PRES   REMARKS
KANSAS CTY INT CLOUDY    74  69  85 N8        30.01R
KANSAS C DTWN  CLOUDY    77  72  84 NE12      29.99R THUNDER
LEE`S SUMMIT   CLOUDY    76  70  82 NW14      30.02R THUNDER
ST JOSEPH      CLOUDY    70  68  93 NE7       30.02R
CHILLICOTHE      N/A     75  69  81 N5        30.04R
KIRKSVILLE     CLOUDY    74  67  78 NE9       30.03S

$$
MOZ066>068-077>081-088>096-101>105-250900-
...SOUTHWEST MISSOURI...

CITY           SKY/WX    TMP DP  RH WIND       PRES   REMARKS
SPRINGFIELD    MOCLDY    81  74  79 CALM      29.98S
JOPLIN         PTCLDY    81  72  74 S7        29.96R
BRANSON        PTCLDY    75  70  83 CALM      30.00S

$$
MOZ032>034-039>042-045>050-055>058-069>072-250900-
...CENTRAL MISSOURI...

CITY           SKY/WX    TMP DP  RH WIND       PRES   REMARKS
COLUMBIA       LGT RAIN  72  71  97 NE3       30.00F
JEFFERSON CITY LGT RAIN  74  71  91 VRB3      29.98S
ROLLA          LGT RAIN  73  69  87 E6        30.00S
SEDALIA        CLOUDY    73  70  90 NE5       29.99F THUNDER
WHITEMAN AFB   LGT RAIN  72  72 100 E8        29.96F FOG
OSAGE BEACH    CLOUDY    75  72  88 NE6       29.99S

$$
MOZ051-052-059>065-250900-
...EAST CENTRAL MISSOURI...

CITY           SKY/WX    TMP DP  RH WIND       PRES   REMARKS
ST LOUIS INTL  CLOUDY    78  69  73 S23       29.97S THUNDER
SPIRIT OF STL  TSTM      75  72  90 W13G29    30.01R FOG
ST CHARLES     CLOUDY    76  75  97 E9        29.97R THUNDER

$$
MOZ072>076-082>087-097>100-106>115-250900-
...SOUTH CENTRAL AND SOUTHEAST MISSOURI...

CITY           SKY/WX    TMP DP  RH WIND       PRES   REMARKS
CAPE GIRARDEAU CLEAR     78  75  90 CALM      29.98R
FARMINGTON     PTCLDY    77  76  96 S5        30.01R
POPLAR BLUFF   CLEAR     78  76  93 CALM      29.98R
WEST PLAINS    CLEAR     78  73  84 CALM      30.02S

$$



USA.gov is the U.S. government's official web portal to all federal, state and local government web resources and services.